Simultaneous Nadir Overpasses (SNOs) Predictions

Prediction of SNOs between LANDSAT-8 and METOP-A Satellite Orbit:

Table of predicted SNOs for the next 14.0 days since TLE Epoch: 2/6/2015
Index Date (LANDSAT-8) Time (LANDSAT-8) Lat,Lon (LANDSAT-8) SZA (LANDSAT-8 ) Date (METOP-A) Time (METOP-A) Lat,Lon (METOP-A) SZA (METOP-A ) Distance(km) Time Diff (sec)
1 02/08/2015 07:06:37 81.09, 112.39 97.72 02/08/2015 07:05:37 81.09, 112.21 97.68 3.22 60
2 02/08/2015 07:56:02 -81.14, -79.24 82.19 02/08/2015 07:56:14 -81.14, -79.15 82.18 1.57 12
3 02/11/2015 02:40:49 81.11, 179.16 96.86 02/11/2015 02:40:00 81.11, 179.02 96.83 2.52 49
4 02/11/2015 03:30:15 -81.14, -12.83 83.10 02/11/2015 03:30:38 -81.14, -12.69 83.08 2.37 23
5 02/13/2015 22:15:01 81.12,-114.28 95.95 02/13/2015 22:14:23 81.12,-114.22 95.94 1.12 38
6
